OBJECT D, 63985

Orbit data source: Space-Track

You're viewing an Uncataloged Satellite

Recently launched and/or uncataloged satellites may have evolving metadata. Metadata may include but not limited to: Owner, Maufacturer, Bus, Motor, and Mission.

OBJECT D, 63985 is a Chinese satellite in SSO that was launched on Wed, 14 May 2025 UTC via a CHANG ZHENG 2D launch vehicle from the Jiuquan Satellite Launch Center, China (JSC). Unknown objects in Earth's orbit typically refer to objects detected orbiting the Earth but have not yet been identified or cataloged. These objects could be anything from previously untracked satellites, spent rocket stages, debris from satellite collisions, or even natural meteoroids temporarily captured by Earth's gravity.

Loading next visibility...
Identifier
63985, 2025-100D
Orbit
SSO
Country
Flag of CNCN / PRC
Related business
None
Manufacturer
Unknown
Mission
Operational Commercial Technology
Bus & Motor
Unknown
Mass
Unknown
Launch date (UTC)
2025-05-14 (1 year ago)
Launch vehicle
CHANG ZHENG 2D
Launch site
Jiuquan Satellite Launch Center, China (JSC)
Object type
Unknown
Shape & HBR
Box + 2 Pan, 0.9 m
Radar Cross Section
0.135 m², Large (>1 m²)

Expand to show TLE details & history
Last TLE update: 16 hours ago

TLE from 16 hours ago
0 OBJECT D
1 63985U 25100D   26202.55795611  .00025164  00000-0  79482-3 0  9991
2 63985  97.3654 278.2878 0010796 151.4755 208.7080 15.32756634 66098
Epoch: 2026-07-21T13:23Z
TLE epoch observation values (Epoch: 2026-07-21T13:23:27.407Z)
Latitude
-0.00005°
Longitude
138.09768°
Altitude
477.186 km
Speed
7.624 km/s
True Right ascension
18h 33m 09s
True Declination
0° 00' 00"
Sunlit
Object was in full shadow at epoch
Visualization orbit readout
Latitude
Unknown
Longitude
Unknown
Altitude
Unknown
Speed
Unknown
Apparent Right ascension
Unknown
Apparent Declination
Unknown
Sunlit
N/A
Visualization observer readout
Local Sidereal Time
18:10:46
Azimuth
Unknown
Elevation
Unknown
Doppler factor
Unknown
Orbital elements
Apogee altitude
471.926 km
Perigee altitude
457.152 km
Semi-major axis
6,842.676 km
Eccentricity
0.00108
Inclination
97.3654°
RAAN
278.2878°
Arg. of periapsis
151.4755°
True anomaly
208.64865°
Mean anomaly
208.708°
Eccentric anomaly
208.67832°
Mean motion
3.83446 °/min
Orbital period
93.89 mins
BSTAR
0.00079482
Loading maneuver chart data...
Computing Atmospheric mass density...
Loading historical data...
Loading historical data...
Loading historical data...
Loading historical data...
Loading historical data...
Loading historical data...
Loading historical data...

Documentation

Showing up to 5 results
|